COSMOS 249

Satellite information

Favourite Embed

Satellite Type and Status

PAYLOADIN ORBIT

Key statistics

Satellite COSMOS 249 at a glance.

Uptime

20873

Days in orbit

Revolutions

≈ 13.0

Per day

Orbit

MEO

Medium Earth Orbit

Inclination

62.4

Latest

Satellite identification and parameters

Extended collection of information and parameters for COSMOS 249.

Object identification

Identified? True

Debris? False

Object name: COSMOS 249

International designator: 1968-091A

Object number (NORAD): 3504

Object ID (CCSDS): 3504

Country: COMMONWEALTH OF INDEPENDENT STATES (CIS)

Current information (Y/N): Y

RCS size: LARGE

Orbital parameters

Period: 111.023 minutes

Inclination: 62.3511 deg

SMA: 7651.895 km

Apoapsis: 2034.71 km

Periapsis: 512.81 km

RAAN: 17.1087 deg

Eccentricy: 0.09944596

Argument of periapsis: 343.1566 deg

Mean anomaly: 13.8485 deg

Mean motion: 12.97027753 rev/day

Mean motion (dot): 0.00000361 rev/day2

B* drag term: 0.0001442472 1/REarth

Two-line elements (TLE)

Creation date: Dec. 12, 2025, 10:14 a.m.

Reference frame: TEME

Reference center: EARTH

Epoch: Dec. 12, 2025, 6:57 a.m. UTC

TLE line 0: 0 COSMOS 249

TLE line 1: 1 03504U 68091A 25346.28996546 .00000361 00000-0 14425-3 0 9994

TLE line 2: 2 03504 62.3511 17.1087 0994460 343.1566 13.8485 12.97027753696245

Live tracking on map

Real-time ground track for satellite COSMOS 249.

In-orbit conjunctions

A list of the most updated potential collisions computed for object COSMOS 249.

Target Orbit TCA Probability of collision Miss distance Type
FENGYUN 1C DEB SSO 2024-10-22 03:32:13 0.0001197089 325.0 (m) DEBRIS

Associated space launch

The I2P satellites were the first soviet coorbital ASAT system.

COSMOS 249 was lifted into orbit during the mission ‘Tsiklon-2A | I2P 1’, on board a Tsiklon-2A space rocket.

The launch took place on Oct. 20, 1968, 4:02 a.m. from 90/20.

For more information about the launch, click the button.

Launch to space Tsiklon-2A | I2P 1
Tsiklon-2A | I2P 1

Agency: N/A

Status: Launch Successful

Launch date: Oct. 20, 1968, 4:02 a.m. UTC

Rocket: Tsiklon-2A

Launch pad: 90/20

Location: Baikonur Cosmodrome, Republic of Kazakhstan

...

Latest news about this satellite

There are no fresh news available about this satellite. Check back as we update our databases every day.


Newsletter sign-up

Weekly statistics, charts and insights to help you stay on top of the space industry.